User: anonymous   Login
Location: Muenchen
(48.1800°N, 11.5800°E)
Time: 02:16:26
(UTC+02:00)
Language:

Iridium 37 - Orbit

View from above orbital plane
View from above orbital plane
View from above satellite
View from above satellite

Ground track
Ground track

The orbit data is extracted from the following two-line orbital elements,

1 24968U 97056D   15213.49457500  .00000040  00000-0  70743-5 0  9992
2 24968 086.3942 245.4524 0002307 092.9997 267.1463 14.34218165934253
Epoch (UTC): 01 August 2015 11:52:11
Eccentricity: 0.0002307
inclination: 86.3942°
perigee height: 776 km
apogee height: 779 km
right ascension of ascending node: 245.4524°
argument of perigee: 92.9997°
revolutions per day: 14.34218165
mean anomaly at epoch: 267.1463°
orbit number at epoch: 93425

The dashed part of the orbit path shows where the satellite is in the earth's shadow,  

DLR